Location: Lafig�re
(44.4503°N, 4.0357°E)
Time: 16:43:52
(UTC+00:00)

Helios 1A Rocket - Pass Details

Date: 24 September 2020
Orbit: 563 x 586 km, 98.3° (Epoch: 26 October)

Event Time Altitude Azimuth Distance (km) Brightness Sun altitude
Rises 18:25:51 0° 183° (S) 2,782 6.4 -9.5°
Reaches altitude 10° 18:28:05 10° 191° (S) 1,892 5.6 -9.9°
Maximum altitude 18:31:57 40° 261° (W) 868 4.5 -10.6°
Drops below altitude 10° 18:35:53 10° 332° (NNW) 1,916 6.1 -11.3°
Sets 18:38:10 0° 340° (NNW) 2,823 6.9 -11.7°
